Weather History for Luverne, MN

Change the Weather History Date:

Monday, February 11, 2013

  Actual Average (KFSD) Record (KFSD)
Temperature  
Mean Temperature 24 °F 20 °F  
Max Temperature 28 °F 30 °F 61 °F (1977)
Min Temperature 21 °F 10 °F -40 °F (1899)
Degree Days  
Heating Degree Days 40 45  
Month to date heating degree days 507  
Since 1 July heating degree days 5139  
Cooling Degree Days 0 0  
Month to date cooling degree days 0  
Year to date cooling degree days 0  
Moisture  
Dew Point 18 °F    
Average Humidity 81    
Maximum Humidity 86    
Minimum Humidity 74    
Precipitation  
Precipitation 0.00 in 0.02 in 0.25 in (1992)
Month to date precipitation 0.20  
Year to date precipitation 0.76  
Snow  
Snow 0.00 in 0.20 in 4.80 in (1992)
Month to date snowfall 2.6  
Since 1 July snowfall 27.2  
Snow Depth -    
Sea Level Pressure  
Sea Level Pressure 29.94 in    
Wind  
Wind Speed 21 mph (WNW)    
Max Wind Speed 29 mph    
Max Gust Speed 38 mph    
Visibility 8 miles    
Events Snow    
T = Trace of Precipitation, MM = Missing Value Source: NWS Daily Summary

Daily Weather History Graph

Daily Weather History Graph

Search for Another Location

Airport:

Trip Planner

Search our weather history database for the weather conditions in past years. The results will help you decide how hot, cold, wet, or windy it might be!

Date:

Astronomy

Feb. 11, 2013 Rise Set
Actual Time 7:28 AM CST 5:50 PM CST
Civil Twilight 6:58 AM CST 6:19 PM CST
Nautical Twilight 6:25 AM CST 6:53 PM CST
Astronomical Twilight 5:51 AM CST 7:26 PM CST
Moon 7:49 AM CST (2/11) 7:53 PM CST (2/11)
Length of Visible Light 11h 20m
Length of Day
10h 21m
Waxing Crescent, 3% of the Moon is Illuminated
Feb 11
Waxing Crescent
Feb 17
First Quarter
Feb 25
Full
Mar 4
Last Quarter
Mar 11
New

Hourly Weather History & Observations

Time (CST) Temp. Windchill Dew Point Humidity Pressure Visibility Wind Dir Wind Speed Gust Speed Precip Events Conditions
12:16 AM 28.4 °F 14.4 °F 24.8 °F 86% 29.60 in 1.2 mi NW 23.0 mph 33.4 mph N/A Snow Light Snow
12:37 AM 28.4 °F 13.8 °F 24.8 °F 86% 29.62 in 1.2 mi NW 25.3 mph 36.8 mph N/A Snow Light Snow
12:56 AM 26.6 °F 11.1 °F 23.0 °F 86% 29.63 in 1.2 mi NW 26.5 mph 33.4 mph N/A Snow Light Snow
1:16 AM 26.6 °F 10.6 °F 23.0 °F 86% 29.64 in 1.2 mi NW 28.8 mph 38.0 mph N/A Snow Light Snow
1:36 AM 26.6 °F 11.1 °F 23.0 °F 86% 29.65 in 1.2 mi NW 26.5 mph 36.8 mph N/A Snow Light Snow
1:56 AM 26.6 °F 11.4 °F 23.0 °F 86% 29.68 in 1.0 mi NW 25.3 mph 33.4 mph N/A Snow Light Snow
2:16 AM 26.6 °F 11.4 °F 21.2 °F 80% 29.69 in 1.5 mi NW 25.3 mph 35.7 mph N/A Snow Light Snow
2:36 AM 26.6 °F 11.7 °F 21.2 °F 80% 29.70 in 2.0 mi NW 24.2 mph 33.4 mph N/A   Overcast
2:56 AM 24.8 °F 8.4 °F 21.2 °F 86% 29.72 in 3.0 mi NW 27.6 mph 35.7 mph N/A   Overcast
3:16 AM 24.8 °F 9.0 °F 21.2 °F 86% 29.73 in 3.0 mi NW 25.3 mph 35.7 mph N/A   Overcast
3:36 AM 24.8 °F 8.7 °F 19.4 °F 80% 29.75 in 4.0 mi NW 26.5 mph 38.0 mph N/A   Haze
3:56 AM 24.8 °F 8.7 °F 19.4 °F 80% 29.77 in 5.0 mi NW 26.5 mph 35.7 mph N/A   Haze
4:16 AM 24.8 °F 9.3 °F 19.4 °F 80% 29.78 in 7.0 mi NW 24.2 mph 31.1 mph N/A   Overcast
4:36 AM 23.0 °F 7.2 °F 19.4 °F 86% 29.79 in 7.0 mi NW 23.0 mph 31.1 mph N/A   Overcast
4:56 AM 23.0 °F 7.6 °F 19.4 °F 86% 29.80 in 7.0 mi NW 21.9 mph 29.9 mph N/A   Scattered Clouds
5:16 AM 23.0 °F 6.6 °F 17.6 °F 80% 29.81 in 10.0 mi WNW 25.3 mph 29.9 mph N/A   Clear
5:36 AM 21.2 °F 5.2 °F 17.6 °F 86% 29.83 in 7.0 mi WNW 21.9 mph 31.1 mph N/A   Clear
5:56 AM 21.2 °F 3.5 °F 17.6 °F 86% 29.85 in 10.0 mi WNW 27.6 mph 32.2 mph N/A   Clear
6:16 AM 23.0 °F 6.3 °F 17.6 °F 80% 29.85 in 10.0 mi WNW 26.5 mph 35.7 mph N/A   Scattered Clouds
6:36 AM 23.0 °F 6.3 °F 17.6 °F 80% 29.86 in 10.0 mi NW 26.5 mph 34.5 mph N/A   Mostly Cloudy
6:56 AM 23.0 °F 6.0 °F 17.6 °F 80% 29.87 in 10.0 mi NW 27.6 mph 35.7 mph N/A   Overcast
7:16 AM 23.0 °F 6.0 °F 17.6 °F 80% 29.88 in 10.0 mi NW 27.6 mph 34.5 mph N/A   Mostly Cloudy
7:36 AM 23.0 °F 7.2 °F 17.6 °F 80% 29.90 in 10.0 mi NW 23.0 mph 31.1 mph N/A   Overcast
7:57 AM 23.0 °F 8.7 °F 17.6 °F 80% 29.91 in 10.0 mi NW 18.4 mph 26.5 mph N/A   Overcast
8:16 AM 23.0 °F 8.3 °F 17.6 °F 80% 29.92 in 10.0 mi NW 19.6 mph 27.6 mph N/A   Overcast
8:36 AM 23.0 °F 7.6 °F 17.6 °F 80% 29.94 in 10.0 mi NW 21.9 mph 29.9 mph N/A   Overcast
8:56 AM 23.0 °F 9.2 °F 17.6 °F 80% 29.95 in 10.0 mi NW 17.3 mph 25.3 mph N/A   Overcast
9:16 AM 23.0 °F 7.6 °F 17.6 °F 80% 29.97 in 10.0 mi NW 21.9 mph 25.3 mph N/A   Overcast
9:36 AM 23.0 °F 8.7 °F 17.6 °F 80% 29.97 in 10.0 mi NW 18.4 mph 27.6 mph N/A   Overcast
9:56 AM 23.0 °F 8.3 °F 17.6 °F 80% 29.98 in 10.0 mi NW 19.6 mph 27.6 mph N/A   Overcast
10:16 AM 23.0 °F 8.7 °F 17.6 °F 80% 29.98 in 10.0 mi NW 18.4 mph 25.3 mph N/A   Overcast
10:36 AM 24.8 °F 10.0 °F 17.6 °F 74% 29.99 in 10.0 mi WNW 21.9 mph 27.6 mph N/A   Overcast
10:56 AM 24.8 °F 11.5 °F 17.6 °F 74% 30.00 in 10.0 mi NW 17.3 mph 25.3 mph N/A   Overcast
11:16 AM 24.8 °F 10.7 °F 19.4 °F 80% 30.01 in 10.0 mi NW 19.6 mph 26.5 mph N/A   Overcast
11:36 AM 24.8 °F 10.0 °F 17.6 °F 74% 30.02 in 10.0 mi NW 21.9 mph 31.1 mph N/A   Overcast
11:56 AM 23.0 °F 8.0 °F 17.6 °F 80% 30.02 in 10.0 mi NW 20.7 mph 32.2 mph N/A   Overcast
12:17 PM 23.0 °F 9.6 °F 17.6 °F 80% 30.02 in 7.0 mi NW 16.1 mph 19.6 mph N/A   Overcast
12:36 PM 23.0 °F 8.0 °F 15.8 °F 74% 30.02 in 7.0 mi NW 20.7 mph 31.1 mph N/A   Overcast
12:56 PM 23.0 °F 8.7 °F 17.6 °F 80% 30.03 in 10.0 mi NW 18.4 mph 28.8 mph N/A   Overcast
1:16 PM 23.0 °F 6.9 °F 17.6 °F 80% 30.02 in 5.0 mi NW 24.2 mph 32.2 mph N/A   Haze
1:36 PM 23.0 °F 8.0 °F 17.6 °F 80% 30.03 in 10.0 mi NW 20.7 mph 27.6 mph N/A   Overcast
1:57 PM 23.0 °F 8.3 °F 17.6 °F 80% 30.03 in 10.0 mi NW 19.6 mph 26.5 mph N/A   Overcast
2:16 PM 23.0 °F 6.9 °F 17.6 °F 80% 30.03 in 10.0 mi NW 24.2 mph 29.9 mph N/A   Overcast
2:36 PM 23.0 °F 8.0 °F 17.6 °F 80% 30.03 in 10.0 mi NW 20.7 mph 26.5 mph N/A   Overcast
2:57 PM 24.8 °F 10.7 °F 19.4 °F 80% 30.04 in 10.0 mi WNW 19.6 mph 26.5 mph N/A   Overcast
3:16 PM 24.8 °F 10.3 °F 19.4 °F 80% 30.04 in 10.0 mi WNW 20.7 mph 26.5 mph N/A   Overcast
3:36 PM 24.8 °F 11.5 °F 17.6 °F 74% 30.04 in 10.0 mi NW 17.3 mph 25.3 mph N/A   Overcast
3:56 PM 23.0 °F 8.3 °F 17.6 °F 80% 30.04 in 10.0 mi WNW 19.6 mph 24.2 mph N/A   Overcast
4:56 PM 23.0 °F 8.7 °F 15.8 °F 74% 30.05 in 10.0 mi WNW 18.4 mph 25.3 mph N/A   Clear
5:16 PM 23.0 °F 9.6 °F 15.8 °F 74% 30.05 in 10.0 mi WNW 16.1 mph 23.0 mph N/A   Clear
5:36 PM 21.2 °F 9.5 °F 15.8 °F 80% 30.05 in 10.0 mi NW 11.5 mph - N/A   Clear
5:56 PM 21.2 °F 8.9 °F 15.8 °F 80% 30.06 in 10.0 mi WNW 12.7 mph - N/A   Clear
6:16 PM 21.2 °F 9.5 °F 14.0 °F 74% 30.06 in 10.0 mi WNW 11.5 mph - N/A   Clear
6:37 PM 21.2 °F 12.6 °F 14.0 °F 74% 30.07 in 10.0 mi NW 6.9 mph - N/A   Mostly Cloudy
6:56 PM 21.2 °F 14.9 °F 15.8 °F 80% 30.07 in 10.0 mi WNW 4.6 mph - N/A   Overcast
7:16 PM 21.2 °F 12.6 °F 15.8 °F 80% 30.07 in 10.0 mi WNW 6.9 mph - N/A   Overcast
7:37 PM 21.2 °F 11.7 °F 15.8 °F 80% 30.07 in 10.0 mi WNW 8.1 mph - N/A   Overcast
7:56 PM 23.0 °F 13.9 °F 17.6 °F 80% 30.07 in 10.0 mi West 8.1 mph - N/A   Overcast
8:16 PM 23.0 °F 13.9 °F 17.6 °F 80% 30.07 in 10.0 mi WNW 8.1 mph - N/A   Overcast
8:37 PM 23.0 °F 14.7 °F 17.6 °F 80% 30.07 in 10.0 mi West 6.9 mph - N/A   Overcast
8:56 PM 23.0 °F 17.0 °F 17.6 °F 80% 30.07 in 10.0 mi WNW 4.6 mph - N/A   Overcast
9:17 PM 23.0 °F 15.8 °F 17.6 °F 80% 30.06 in 10.0 mi West 5.8 mph - N/A   Overcast
9:36 PM 23.0 °F 18.4 °F 17.6 °F 80% 30.06 in 10.0 mi West 3.5 mph - N/A   Overcast
9:56 PM 23.0 °F 18.4 °F 19.4 °F 86% 30.06 in 10.0 mi West 3.5 mph - N/A   Overcast
10:17 PM 23.0 °F 14.7 °F 19.4 °F 86% 30.06 in 10.0 mi West 6.9 mph - N/A   Overcast
10:36 PM 23.0 °F 14.7 °F 19.4 °F 86% 30.05 in 10.0 mi WSW 6.9 mph - N/A   Overcast
10:56 PM 23.0 °F 15.8 °F 19.4 °F 86% 30.05 in 10.0 mi WSW 5.8 mph - N/A   Overcast
11:16 PM 23.0 °F 13.9 °F 19.4 °F 86% 30.06 in 10.0 mi WSW 8.1 mph - N/A   Overcast
11:36 PM 24.8 °F 16.9 °F 19.4 °F 80% 30.06 in 10.0 mi WSW 6.9 mph - N/A   Overcast
11:56 PM 24.8 °F 19.1 °F 21.2 °F 86% 30.06 in 7.0 mi WSW 4.6 mph - N/A   Overcast